Regional Weather Roundup
Issued by NWS

Home | Current Version | Previous Version | Graphics & Text | Print | Product List | Glossary On
Versions: 1 2 3 4 5 6 7 8 9 10 11 12 13 14 15 16 17 18 19 20 21 22 23 24 25 26 27 28 29 30 31 32 33 34 35 36 37 38 39 40 41 42 43 44 45 46 47 48 49 50
000
ASUS43 KLOT 250312
RWRIL

ILLINOIS REGIONAL WEATHER ROUNDUP
NATIONAL WEATHER SERVICE CHICAGO/ROMEOVILLE IL
1000 PM CDT FRI APR 24 2015

NOTE: "FAIR" INDICATES FEW OR NO CLOUDS BELOW 12,000 FEET WITH NO
SIGNIFICANT WEATHER AND/OR OBSTRUCTIONS TO VISIBILITY.

* THESE STATIONS ARE NOT UNDER NWS QUALITY CONTROL. THEY ALSO MAY NOT
  REPORT WEATHER SUCH AS PRECIPITATION OR FOG.

ILZ001-002-007-009-015-016-024-250400-
NORTHWEST ILLINOIS

CITY           SKY/WX    TMP DP  RH WIND       PRES   REMARKS
MOLINE         CLOUDY    49  41  74 E18       29.79F
STERLING*      CLOUDY    43  39  87 E12       29.86R
SAVANNA*       CLOUDY    43  40  88 E15       29.84F
$$

ILZ003-004-008-010-011-017-018-250400-
NORTH CENTRAL ILLINOIS

CITY           SKY/WX    TMP DP  RH WIND       PRES   REMARKS
ROCKFORD       CLOUDY    43  36  76 E13       29.92R
FREEPORT*      CLOUDY    41  37  85 E10       29.91R
ROCHELLE*      LGT RAIN  41  38  92 E13       29.87S
DE KALB*       LGT RAIN  39  37  92 E12       29.91R WCI  31
PERU*          CLOUDY    45  37  71 E18       29.85F
$$

ILZ005-006-012>014-019>023-250400-
NORTHEAST ILLINOIS

CITY           SKY/WX    TMP DP  RH WIND       PRES   REMARKS
CHICAGO-OHARE  LGT RAIN  41  35  79 E12       29.89F
CHICAGO-MIDWAY RAIN      44  36  73 E15       29.93F
AURORA         LGT RAIN  42  37  82 SE15G31   29.86F
LANSING*       LGT RAIN  44  31  61 NE14      29.94S
JOLIET*        LGT RAIN  44  38  81 E14       29.91F
WAUKEGAN       CLOUDY    39  34  82 E13       29.93S WCI  31
DUPAGE AIRPORT RAIN      41  37  86 E9G24     29.89F FOG
KANKAKEE*      LGT RAIN  48  35  60 N9        29.91S
WHEELING       LGT RAIN  41  35  79 E10       29.93F
MORRIS*        LGT RAIN  45  35  68 E10       29.90R
ROMEOVILLE*    RAIN      42  36  80 E16       29.90F
NORTHERLY ISL    N/A     42  35  76 NE6         N/A
$$

LMZ740>746-250400-
SOUTHERN LAKE MICHIGAN

STATION/POSITION SKY/WX   TEMP    WIND        PRES    VSBY  WAVE
                          AIR SEA DIR/SP/G                  HT/PER
                          (F)     (DEG/KT/KT) (MB)    (MI)  (FT/S)
HARRISON CRIB              41      60/ 13/ 16   N/A
BURNHAM HARBOR             42      70/  9/ 13   N/A
CALUMET HARBOR             43      10/  9/ 11   N/A
BURNS HARBOR               45      50/ 18/ 23 1013.9S
MICHIGAN CITY              47      20/ 13/ 14   N/A
MICHIGAN CITY 6N           43 44   70/ 14/ 17   N/A           3/ 4
$$

ILZ025>027-034>036-040-047-049-050-058-095>099-250400-
WEST-CENTRAL ILLINOIS

CITY           SKY/WX    TMP DP  RH WIND       PRES   REMARKS
QUINCY         CLOUDY    58  43  57 SE13      29.71F
GALESBURG*     CLOUDY    52  39  62 E13G18    29.77S
MACOMB*        CLOUDY    57  37  46 SE10      29.77F
JACKSONVILLE*  MOCLDY    58  44  59 S10G16    29.77S
PITTSFIELD*    MOCLDY    58  46  63 S13G18    29.75S
$$

ILZ028>032-037-038-041>044-048-051>054-059>061-250400-
CENTRAL ILLINOIS

CITY           SKY/WX    TMP DP  RH WIND       PRES   REMARKS
PONTIAC        CLOUDY    55  34  45 E13       29.87S
BLOOMINGTON    CLOUDY    55  36  49 E7        29.85R
DECATUR        CLOUDY    56  35  45 SE12      29.81F
PEORIA         CLOUDY    58  33  39 E8        29.81S
LACON*         CLOUDY    51  38  63 E14G20    29.82F
LINCOLN*       CLOUDY    57  35  42 SE12G17   29.78F
SPRINGFIELD    CLOUDY    58  38  47 S13       29.78F
TAYLORVILLE    CLOUDY    55  36  47 SE10      29.80F
$$

ILZ033-039-045-046-055>057-062-063-250400-
EAST-CENTRAL ILLINOIS

CITY           SKY/WX    TMP DP  RH WIND       PRES   REMARKS
CHAMPAIGN      CLOUDY    56  34  43 SE10      29.84S
DANVILLE*      CLOUDY    54  37  51 NE5       29.84R
RANTOUL*       CLOUDY    56  37  49 E8        29.85S
MATTOON        CLOUDY    57  34  41 SE13      29.83S
PARIS*         CLOUDY    55  39  55 S10       29.87R
$$

ILZ079-100>102-250400-
SOUTHWEST ILLINOIS

CITY           SKY/WX    TMP DP  RH WIND       PRES   REMARKS
ALTON          CLOUDY    55  41  58 S12       29.78F
BELLEVILLE     CLOUDY    55  47  76 SE8       29.77F
CAHOKIA*       CLOUDY    56  45  66 SE10      29.78F
SPARTA*        CLOUDY    55  44  64 S7        29.81S
$$

ILZ064>066-069>071-074>076-080>082-084>086-088>090-092>094-250400-
SOUTH-CENTRAL ILLINOIS

CITY           SKY/WX    TMP DP  RH WIND       PRES   REMARKS
CARBONDALE     CLOUDY    57  42  57 S5        29.82R
CAIRO*         CLOUDY    58  49  70 S10       29.82F
EFFINGHAM*     CLOUDY    57  32  38 SE6       29.84F
MARION         CLOUDY    59  43  55 SE10      29.81F
MT. VERNON     CLOUDY    55  39  54 SE5       29.83S
CENTRALIA*     CLOUDY    55  41  58 SE6       29.82S
SALEM*         CLOUDY    58  40  50 SE3       29.82F
METROPOLIS*    CLOUDY    59  44  57 S6        29.83F
$$

ILZ067-068-072-073-078-083-087-091-250400-
SOUTHEAST ILLINOIS

CITY           SKY/WX    TMP DP  RH WIND       PRES   REMARKS
LAWRENCEVILLE  CLOUDY    58  36  43 S7        29.87R
FLORA*         CLOUDY    55  41  57 SE9       29.84F
FAIRFIELD*     CLOUDY    57  41  56 SE7       29.83S
HARRISBURG*    CLOUDY    57  43  59 SE8       29.84F
ROBINSON*      CLOUDY    57  36  45 S7        29.87S
CARMI*         CLOUDY    55  40  57 SE9       29.84F
$$

ABBREVIATIONS USED IN REMARKS
   TC - TEMPERATURE IN CELSIUS
  WCI - WIND CHILL INDEX
   HX - HEAT INDEX
  VSB - VISIBILITY
$$



USA.gov is the U.S. government's official web portal to all federal, state and local government web resources and services.